QPF
0.00 0.00 0.00 0.00 0.00 0.00 0.00 0.00 0.00 0.00 0.00 0.00 0.00 0.00 0.00 0.00 0.00 0.00 0.00 0.00 0.00 0.01 0.01 0.02 0.01 0.00 0.03 0.02 0.01 0.04 0.01 0.00 0.00 0.00 0.00 0.00 0.00 0.00 0.00 0.00 0.00 0.00 0.00 0.00
0.00 0.00 0.00 0.00 0.00 0.00 0.00 0.00 0.00 0.00 0.00 0.00 0.00 0.00 0.00 0.00 0.00 0.00 0.00 0.00 0.00 0.00 0.00 0.00 0.00 0.00 0.00 0.02 0.03 0.02 0.01 0.00 0.00 0.00 0.00 0.00 0.00 0.00 0.00 0.00 0.00 0.00 0.00 0.00
0.00 0.00 0.00 0.00 0.00 0.00 0.00 0.00 0.00 0.00 0.00 0.00 0.00 0.00 0.00 0.00 0.00 0.00 0.00 0.00 0.00 0.00 0.00 0.00 0.00 0.00 0.00 0.00 0.00 0.01 0.01 0.00 0.00 0.00 0.00 0.00 0.00 0.00 0.00 0.00 0.00 0.00 0.00 0.00
0.00 0.00 0.00 0.00 0.00 0.00 0.00 0.00 0.00 0.00 0.00 0.00 0.00 0.00 0.00 0.00 0.00 0.00 0.00 0.00 0.00 0.00 0.00 0.00 0.00 0.00 0.00 0.00 0.00 0.00 0.00 0.00 0.00 0.00 0.00 0.00 0.00 0.00 0.00 0.00 0.00 0.00 0.00 0.00
0.00 0.00 0.00 0.00 0.00 0.00 0.00 0.00 0.00 0.00 0.00 0.00 0.00 0.00 0.00 0.00 0.00 0.00 0.00 0.00 0.00 0.00 0.00 0.00 0.00 0.00 0.00 0.00 0.00 0.00 0.00 0.00 0.00 0.00 0.00 0.00 0.00 0.00 0.00 0.00 0.00 0.00 0.00 0.00
0.00 0.00 0.00 0.00 0.00 0.00 0.00 0.00 0.00 0.00 0.00 0.00 0.00 0.00 0.00 0.00 0.00 0.00 0.00 0.00 0.00 0.00 0.00 0.00 0.00 0.00 0.00 0.00 0.00 0.00 0.00 0.00 0.00 0.00 0.00 0.00 0.00 0.00 0.00 0.00 0.00 0.00 0.00 0.00
0.00 0.00 0.00 0.00 0.00 0.00 0.00 0.00 0.00 0.00 0.00 0.00 0.00 0.00 0.00 0.00 0.00 0.00 0.00 0.00 0.00 0.00 0.00 0.00 0.00 0.00 0.00 0.00 0.00 0.00 0.00 0.00 0.00 0.00 0.00 0.00 0.00 0.00 0.00 0.00 0.00 0.00 0.00 0.00
0.00 0.00 0.00 0.00 0.00 0.00 0.00 0.00 0.00 0.00 0.00 0.00 0.00 0.00 0.00 0.00 0.00 0.00 0.00 0.00 0.00 0.00 0.00 0.00 0.00 0.00 0.00 0.00 0.00 0.00 0.00 0.00 0.00 0.00 0.00 0.00 0.00 0.00 0.00 0.00 0.00 0.00 0.00 0.00
0.00 0.00 0.00 0.00 0.00 0.00 0.00 0.00 0.00 0.00 0.00 0.00 0.00 0.00 0.00 0.00 0.00 0.00 0.00 0.00 0.00 0.00 0.00 0.00 0.00 0.00 0.00 0.00 0.00 0.00 0.00 0.00 0.00 0.00 0.00 0.00 0.00 0.00 0.00 0.00 0.00 0.00 0.00 0.00
0.00 0.00 0.00 0.00 0.00 0.00 0.00 0.00 0.00 0.00 0.00 0.00 0.00 0.00 0.00 0.00 0.00 0.00 0.00 0.00 0.00 0.00 0.00 0.00 0.00 0.00 0.00 0.00 0.00 0.00 0.00 0.00 0.00 0.00 0.00 0.00 0.00 0.00 0.00 0.00 0.00 0.00 0.00 0.00
0.00 0.00 0.00 0.00 0.00 0.00 0.00 0.00 0.00 0.00 0.00 0.00 0.00 0.00 0.00 0.00 0.00 0.00 0.00 0.00 0.00 0.00 0.00 0.00 0.00 0.00 0.00 0.00 0.00 0.00 0.00 0.00 0.00 0.00 0.00 0.00 0.00 0.00 0.00 0.00 0.00 0.00 0.00 0.00
0.00 0.00 0.00 0.00 0.00 0.00 0.00 0.00 0.00 0.00 0.01 0.00 0.00 0.00 0.00 0.00 0.00 0.00 0.00 0.00 0.00 0.00 0.00 0.00 0.00 0.00 0.00 0.00 0.00 0.00 0.00 0.00 0.00 0.00 0.00 0.00 0.00 0.00 0.00 0.00 0.00 0.00 0.00 0.00
0.00 0.00 0.00 0.00 0.00 0.00 0.00 0.00 0.00 0.00 0.00 0.01 0.01 0.00 0.00 0.00 0.00 0.00 0.00 0.00 0.00 0.00 0.00 0.00 0.00 0.00 0.00 0.00 0.00 0.00 0.00 0.00 0.00 0.00 0.00 0.00 0.00 0.00 0.00 0.00 0.00 0.00 0.00 0.00
0.00 0.00 0.00 0.00 0.00 0.00 0.00 0.00 0.00 0.00 0.00 0.00 0.00 0.00 0.00 0.00 0.00 0.00 0.00 0.00 0.00 0.00 0.00 0.00 0.00 0.00 0.00 0.00 0.00 0.00 0.00 0.00 0.00 0.00 0.00 0.00 0.00 0.00 0.00 0.00 0.00 0.00 0.00 0.00
0.00 0.00 0.00 0.00 0.00 0.00 0.00 0.00 0.00 0.00 0.00 0.00 0.00 0.00 0.00 0.00 0.00 0.00 0.00 0.00 0.00 0.00 0.00 0.00 0.00 0.00 0.00 0.00 0.00 0.00 0.00 0.00 0.00 0.00 0.00 0.00 0.00 0.00 0.00 0.00 0.00 0.00 0.00 0.00
0.00 0.00 0.00 0.00 0.00 0.00 0.00 0.00 0.00 0.00 0.00 0.00 0.00 0.00 0.00 0.00 0.00 0.00 0.00 0.00 0.01 0.01 0.00 0.00 0.00 0.00 0.00 0.00 0.00 0.00 0.00 0.00 0.00 0.00 0.00 0.00 0.00 0.00 0.00 0.00 0.00 0.00 0.00 0.00
0.00 0.00 0.00 0.00 0.00 0.00 0.00 0.00 0.00 0.00 0.00 0.00 0.00 0.00 0.00 0.00 0.00 0.00 0.00 0.00 0.00 0.01 0.01 0.01 0.00 0.00 0.00 0.00 0.00 0.00 0.00 0.00 0.00 0.00 0.00 0.00 0.00 0.00 0.00 0.00 0.00 0.00 0.00 0.00
0.00 0.00 0.00 0.00 0.00 0.00 0.00 0.00 0.00 0.00 0.00 0.00 0.00 0.00 0.00 0.00 0.00 0.00 0.00 0.00 0.00 0.00 0.01 0.01 0.00 0.00 0.00 0.00 0.00 0.00 0.00 0.00 0.00 0.00 0.00 0.00 0.00 0.00 0.00 0.00 0.00 0.00 0.00 0.00
0.00 0.00 0.00 0.00 0.00 0.00 0.00 0.00 0.00 0.00 0.00 0.00 0.00 0.00 0.00 0.00 0.00 0.00 0.00 0.00 0.00 0.00 0.00 0.00 0.01 0.00 0.00 0.00 0.00 0.00 0.00 0.00 0.00 0.00 0.00 0.00 0.00 0.00 0.00 0.00 0.00 0.00 0.00 0.00
0.00 0.00 0.00 0.00 0.00 0.00 0.00 0.00 0.00 0.00 0.00 0.00 0.00 0.00 0.00 0.00 0.00 0.00 0.00 0.00 0.00 0.00 0.00 0.00 0.00 0.00 0.00 0.00 0.00 0.00 0.00 0.00 0.00 0.00 0.00 0.00 0.00 0.00 0.00 0.00 0.00 0.00 0.00 0.00
0.00 0.00 0.00 0.00 0.00 0.00 0.00 0.00 0.00 0.00 0.00 0.00 0.00 0.00 0.00 0.00 0.00 0.00 0.00 0.00 0.00 0.00 0.00 0.00 0.00 0.00 0.00 0.00 0.00 0.00 0.00 0.00 0.00 0.00 0.00 0.00 0.01 0.01 0.00 0.00 0.00 0.00 0.00 0.00
0.00 0.00 0.00 0.00 0.00 0.00 0.00 0.00 0.00 0.00 0.00 0.00 0.00 0.00 0.00 0.00 0.00 0.00 0.01 0.00 0.00 0.00 0.00 0.00 0.00 0.00 0.00 0.00 0.00 0.00 0.00 0.01 0.01 0.00 0.00 0.00 0.00 0.00 0.00 0.00 0.00 0.00 0.00 0.00
0.00 0.00 0.00 0.00 0.00 0.00 0.00 0.00 0.00 0.00 0.00 0.00 0.00 0.00 0.00 0.00 0.00 0.00 0.00 0.00 0.00 0.00 0.00 0.00 0.00 0.00 0.00 0.00 0.00 0.00 0.00 0.00 0.00 0.01 0.00 0.00 0.00 0.00 0.00 0.00 0.00 0.00 0.00 0.00
0.00 0.00 0.00 0.00 0.00 0.00 0.00 0.00 0.00 0.00 0.00 0.00 0.00 0.00 0.00 0.00 0.00 0.00 0.00 0.00 0.00 0.00 0.00 0.00 0.00 0.00 0.00 0.00 0.00 0.00 0.00 0.00 0.00 0.00 0.00 0.00 0.00 0.00 0.00 0.00 0.00 0.00 0.00 0.00
0.00 0.00 0.00 0.00 0.00 0.00 0.00 0.00 0.00 0.00 0.00 0.00 0.00 0.00 0.00 0.00 0.00 0.00 0.00 0.00 0.00 0.00 0.00 0.00 0.00 0.00 0.00 0.00 0.00 0.00 0.00 0.00 0.00 0.00 0.00 0.00 0.00 0.00 0.00 0.00 0.00 0.00 0.00 0.00
0.00 0.00 0.00 0.00 0.00 0.00 0.00 0.00 0.00 0.00 0.00 0.00 0.00 0.00 0.00 0.00 0.00 0.00 0.00 0.00 0.00 0.00 0.00 0.00 0.01 0.00 0.00 0.00 0.00 0.00 0.00 0.00 0.00 0.00 0.00 0.00 0.00 0.00 0.00 0.00 0.00 0.00 0.00 0.00
MSLP
1009.21 1009.96 1010.38 1010.47 1010.39 1010.21 1010.32 1010.16 1009.76 1009.08 1008.39 1008.11 1007.63 1007.30 1006.48 1005.73 1004.79 1004.41 1004.95 1006.04 1006.53 1005.98 1005.81 1006.71 1007.59 1008.44 1009.36 1009.91 1010.69 1011.77 1011.73 1012.64 1013.45 1014.37 1015.13 1015.97 1016.36 1016.90 1017.11 1017.21 1017.31 1017.60 1017.83 1018.07
1009.67 1009.61 1009.29 1009.09 1009.62 1009.91 1009.91 1009.99 1009.66 1009.08 1008.39 1008.18 1007.78 1007.39 1006.56 1005.66 1005.04 1004.23 1004.01 1004.07 1005.12 1006.05 1005.88 1006.41 1006.94 1007.68 1008.39 1009.32 1010.55 1010.84 1011.48 1012.19 1012.78 1013.47 1014.10 1014.84 1015.70 1016.69 1017.15 1017.25 1017.38 1017.47 1017.80 1018.17
1008.81 1008.45 1008.26 1008.78 1009.02 1009.55 1009.61 1009.71 1009.64 1009.31 1008.57 1008.23 1008.12 1007.38 1006.53 1004.83 1004.29 1003.77 1003.66 1003.06 1004.26 1004.49 1005.14 1005.52 1006.36 1006.74 1007.72 1008.41 1009.07 1009.89 1010.74 1011.46 1012.23 1013.03 1014.03 1014.94 1015.85 1016.85 1017.51 1017.47 1017.42 1017.57 1017.83 1018.08
1008.16 1007.71 1007.90 1008.29 1008.52 1008.87 1009.00 1008.83 1008.97 1009.30 1009.45 1009.26 1008.51 1008.01 1006.78 1005.07 1004.40 1003.68 1002.91 1002.98 1003.06 1003.93 1004.30 1004.67 1005.13 1006.07 1006.67 1006.93 1008.26 1009.23 1009.94 1010.70 1011.74 1012.62 1013.39 1014.05 1014.81 1015.95 1016.18 1016.48 1016.95 1017.49 1017.77 1017.99
1007.51 1007.25 1007.29 1007.52 1007.62 1007.82 1007.93 1008.05 1008.67 1009.18 1009.69 1009.84 1009.11 1009.15 1006.63 1005.89 1005.22 1004.12 1003.19 1002.65 1002.90 1003.14 1003.48 1003.98 1004.37 1004.60 1004.67 1006.17 1007.24 1008.22 1009.53 1010.40 1011.25 1012.08 1012.68 1013.47 1014.47 1015.15 1015.63 1016.26 1016.87 1017.32 1017.67 1017.91
1007.76 1007.02 1006.97 1006.68 1006.55 1006.86 1007.11 1008.05 1009.08 1010.11 1010.48 1010.37 1009.29 1009.12 1007.27 1006.09 1004.80 1003.96 1003.51 1002.96 1002.60 1002.91 1003.03 1003.27 1003.41 1004.11 1004.53 1005.77 1007.10 1007.99 1009.15 1009.97 1010.71 1011.50 1012.29 1012.81 1013.57 1014.65 1015.58 1015.98 1016.53 1017.13 1017.58 1017.99
1009.72 1008.20 1007.51 1007.22 1006.98 1007.08 1007.64 1008.72 1010.24 1011.09 1011.36 1009.90 1009.02 1009.11 1006.81 1005.25 1004.48 1003.75 1003.49 1003.01 1002.64 1003.05 1002.98 1003.00 1003.23 1003.72 1004.72 1005.44 1005.98 1007.06 1008.39 1009.27 1010.07 1010.83 1011.46 1012.23 1012.93 1013.81 1014.37 1015.18 1015.86 1016.83 1017.48 1017.79
1012.65 1010.59 1009.57 1008.93 1008.55 1008.32 1008.49 1009.22 1010.78 1011.03 1011.23 1010.19 1009.47 1008.27 1006.30 1005.22 1005.10 1005.23 1004.52 1004.07 1003.64 1003.58 1003.16 1002.76 1002.51 1002.55 1002.99 1004.31 1004.97 1005.85 1007.10 1008.31 1009.25 1010.20 1010.73 1011.51 1012.50 1013.18 1013.81 1014.46 1015.32 1016.06 1016.62 1017.08
1014.62 1012.80 1011.25 1010.27 1009.73 1009.46 1009.64 1009.99 1010.39 1011.01 1011.18 1010.92 1009.81 1007.80 1006.49 1006.43 1006.50 1006.41 1006.05 1005.58 1005.05 1004.51 1003.83 1002.97 1002.25 1002.15 1002.43 1003.13 1003.64 1004.34 1005.67 1006.87 1008.27 1009.07 1010.29 1011.21 1012.18 1012.84 1013.28 1014.26 1014.82 1015.54 1016.29 1016.85
1016.00 1015.16 1012.97 1011.62 1010.93 1010.80 1010.93 1011.74 1011.71 1012.03 1012.41 1011.93 1010.52 1009.35 1009.05 1008.59 1008.26 1007.86 1007.28 1006.77 1005.83 1004.79 1004.36 1003.46 1002.46 1001.69 1001.79 1002.11 1003.09 1004.51 1005.00 1005.32 1006.36 1007.77 1009.19 1010.51 1011.49 1012.31 1012.87 1013.79 1014.70 1015.30 1015.94 1016.46
1016.63 1016.53 1014.83 1013.39 1013.67 1013.76 1013.02 1013.40 1013.91 1013.55 1013.43 1013.01 1011.97 1010.96 1010.16 1010.02 1009.59 1009.22 1008.56 1007.74 1006.84 1005.54 1004.59 1003.70 1002.50 1001.40 1001.05 1001.52 1002.11 1002.75 1004.31 1005.56 1006.66 1007.75 1008.88 1010.10 1010.98 1011.77 1012.18 1013.33 1014.12 1014.69 1015.35 1015.99
1017.45 1017.47 1016.88 1015.95 1015.75 1015.04 1014.93 1015.84 1015.65 1015.32 1015.13 1014.36 1013.49 1012.08 1011.01 1010.62 1010.18 1009.63 1008.96 1008.28 1007.10 1006.13 1005.17 1004.01 1002.87 1001.81 1001.16 1001.37 1002.02 1002.48 1003.60 1004.71 1005.71 1006.94 1008.52 1009.63 1010.61 1011.44 1011.74 1012.77 1013.90 1014.40 1014.96 1015.55
1017.99 1018.36 1018.31 1017.30 1017.19 1016.42 1016.76 1016.89 1016.86 1016.62 1016.43 1015.33 1014.20 1012.70 1011.53 1010.98 1010.43 1009.93 1009.45 1008.70 1007.73 1006.41 1005.38 1004.62 1003.50 1002.67 1001.99 1001.86 1002.22 1002.93 1003.65 1004.50 1005.71 1007.02 1008.18 1009.34 1010.40 1011.02 1011.81 1012.38 1013.45 1014.15 1014.65 1015.18
1018.32 1019.33 1019.39 1019.04 1018.55 1018.58 1018.01 1017.52 1017.59 1017.55 1017.50 1016.59 1015.04 1013.30 1012.31 1012.03 1011.39 1010.49 1009.81 1009.32 1008.11 1007.15 1005.96 1005.48 1004.69 1003.93 1003.32 1003.17 1003.23 1003.73 1004.55 1005.15 1005.84 1006.59 1007.70 1008.99 1009.85 1010.31 1011.18 1012.09 1013.09 1013.74 1014.31 1014.86
1019.26 1020.01 1019.93 1019.63 1019.21 1018.65 1018.11 1017.74 1017.66 1017.52 1017.18 1017.03 1014.95 1014.23 1013.23 1012.74 1012.25 1011.14 1010.37 1009.50 1008.78 1007.62 1006.78 1006.32 1005.89 1005.15 1004.59 1004.29 1004.26 1004.57 1004.95 1005.41 1005.89 1006.42 1007.35 1008.39 1009.25 1009.94 1010.83 1011.97 1012.81 1013.45 1014.15 1014.77
1019.97 1020.31 1020.37 1020.09 1019.45 1018.97 1018.41 1017.65 1017.24 1017.03 1016.79 1015.89 1015.44 1013.81 1013.30 1012.48 1011.99 1011.11 1010.49 1009.96 1009.41 1008.41 1007.58 1007.23 1006.82 1006.38 1006.01 1005.49 1005.09 1004.90 1005.15 1005.63 1005.96 1006.47 1006.94 1007.75 1008.63 1009.46 1010.40 1011.73 1012.81 1013.46 1013.96 1014.61
1020.47 1020.87 1021.37 1020.86 1020.13 1019.81 1018.85 1016.33 1016.18 1016.00 1015.48 1014.97 1014.86 1013.91 1013.02 1012.24 1011.69 1011.18 1010.87 1010.39 1009.81 1009.14 1008.27 1007.97 1007.73 1007.13 1006.50 1006.31 1005.74 1005.35 1005.26 1005.53 1006.09 1006.31 1006.94 1007.71 1008.37 1009.22 1010.25 1011.63 1012.73 1013.36 1013.85 1014.50
1020.41 1021.34 1021.88 1021.74 1021.23 1019.73 1015.94 1015.10 1015.06 1015.18 1014.79 1014.29 1013.64 1013.02 1012.65 1012.22 1011.76 1011.03 1010.58 1010.24 1009.70 1009.16 1008.93 1008.38 1008.10 1007.49 1006.35 1006.26 1005.94 1005.91 1005.42 1005.68 1006.14 1006.66 1007.24 1007.98 1008.51 1009.33 1010.33 1011.53 1012.55 1013.14 1013.78 1014.35
1019.65 1021.00 1022.04 1022.10 1021.17 1017.96 1015.82 1015.02 1014.90 1014.72 1013.59 1012.34 1012.40 1012.08 1011.87 1011.65 1011.24 1010.67 1010.23 1009.91 1009.18 1008.69 1008.63 1008.57 1008.10 1007.93 1007.09 1006.77 1006.11 1006.34 1006.02 1006.10 1006.62 1006.77 1007.01 1007.61 1008.62 1009.84 1010.90 1011.53 1012.43 1013.27 1013.85 1014.34
1019.77 1020.42 1021.65 1021.97 1021.10 1018.24 1015.23 1013.92 1013.33 1013.92 1012.45 1011.84 1011.86 1011.61 1011.64 1011.62 1011.74 1010.38 1010.08 1009.42 1009.01 1008.47 1008.51 1008.31 1008.45 1007.89 1007.59 1007.36 1007.05 1006.49 1006.45 1007.56 1007.42 1007.68 1008.01 1008.23 1008.70 1009.85 1010.66 1011.70 1012.48 1013.36 1013.73 1014.43
1019.66 1020.43 1020.93 1020.77 1019.88 1016.45 1014.31 1013.11 1013.22 1013.76 1012.43 1011.45 1011.32 1011.21 1011.21 1011.39 1010.81 1010.33 1009.75 1009.16 1008.79 1008.34 1008.08 1007.91 1007.71 1007.57 1007.56 1007.92 1008.63 1008.03 1007.26 1008.29 1008.36 1008.60 1008.19 1008.60 1009.64 1010.53 1011.14 1012.02 1012.87 1013.31 1014.00 1014.65
1018.60 1019.09 1019.33 1018.87 1018.24 1015.54 1012.55 1012.84 1012.62 1011.87 1011.65 1011.43 1011.39 1011.18 1011.31 1010.93 1010.46 1010.16 1009.78 1009.35 1008.91 1008.66 1008.19 1008.22 1008.14 1007.81 1007.81 1008.13 1008.77 1009.13 1009.16 1008.90 1009.43 1008.73 1009.81 1010.49 1011.15 1011.75 1011.97 1012.15 1013.23 1013.78 1014.08 1014.71
1017.50 1016.39 1016.12 1015.99 1014.28 1012.35 1011.57 1011.02 1010.81 1010.58 1011.04 1011.12 1011.17 1011.00 1011.02 1011.10 1010.65 1010.21 1009.73 1009.71 1009.26 1008.81 1008.50 1008.23 1008.18 1008.04 1007.91 1008.08 1008.43 1008.95 1009.86 1010.32 1009.11 1010.19 1010.72 1010.65 1011.29 1012.46 1012.72 1012.60 1013.17 1013.38 1013.73 1014.31
1015.55 1014.89 1014.76 1014.43 1011.98 1011.27 1010.83 1010.59 1010.33 1010.48 1010.41 1010.16 1010.18 1010.13 1010.41 1010.66 1010.39 1010.03 1009.69 1009.13 1009.43 1008.83 1008.49 1008.47 1008.37 1008.41 1008.20 1008.27 1008.42 1008.49 1008.85 1009.38 1010.36 1010.72 1010.81 1011.57 1011.71 1012.46 1012.18 1012.44 1012.87 1013.12 1013.85 1014.73
1014.15 1014.22 1013.13 1012.04 1010.93 1010.73 1010.26 1009.65 1009.46 1009.51 1009.53 1009.39 1009.25 1009.31 1009.66 1009.97 1009.76 1009.70 1009.52 1009.14 1008.72 1008.86 1008.67 1008.70 1008.82 1008.61 1008.55 1008.69 1008.65 1008.64 1009.00 1009.33 1009.95 1010.57 1010.72 1011.96 1012.50 1012.97 1012.82 1012.96 1013.15 1013.09 1014.39 1014.25
1012.89 1012.42 1012.46 1010.88 1010.17 1010.02 1009.51 1009.26 1008.95 1008.80 1008.66 1008.53 1008.56 1008.67 1008.74 1009.05 1009.09 1009.07 1009.05 1008.83 1008.40 1008.43 1008.74 1008.71 1008.64 1008.47 1008.58 1008.79 1008.91 1009.11 1009.23 1009.80 1010.23 1010.93 1011.72 1012.43 1012.81 1013.26 1013.15 1013.83 1013.96 1013.91 1013.85 1013.58
Thickness
5666 5651 5645 5657 5662 5670 5669 5669 5674 5686 5700 5700 5700 5700 5716 5735 5743 5761 5769 5758 5758 5773 5793 5791 5788 5789 5784 5785 5784 5776 5781 5775 5771 5767 5763 5758 5756 5752 5751 5751 5750 5749 5748 5747
5649 5642 5661 5669 5665 5664 5665 5662 5663 5677 5690 5686 5692 5694 5707 5725 5732 5750 5768 5773 5770 5767 5778 5782 5785 5788 5785 5781 5776 5779 5776 5772 5770 5768 5765 5761 5755 5748 5745 5744 5743 5745 5743 5740
5644 5660 5668 5663 5660 5654 5654 5652 5658 5661 5678 5683 5683 5679 5703 5731 5737 5744 5763 5780 5772 5774 5780 5785 5783 5786 5782 5781 5782 5779 5772 5769 5767 5763 5757 5752 5746 5739 5734 5735 5737 5737 5735 5734
5649 5662 5661 5653 5654 5649 5641 5657 5659 5658 5657 5643 5672 5643 5689 5714 5724 5736 5756 5769 5778 5774 5781 5784 5786 5781 5782 5787 5781 5777 5773 5770 5762 5758 5755 5753 5750 5740 5738 5737 5734 5731 5729 5729
5652 5657 5653 5647 5647 5652 5648 5659 5651 5652 5642 5643 5657 5642 5679 5698 5704 5719 5741 5761 5768 5770 5776 5778 5781 5788 5794 5784 5779 5777 5767 5766 5760 5756 5752 5750 5743 5739 5735 5732 5727 5725 5724 5722
5654 5666 5660 5655 5660 5657 5663 5652 5636 5623 5620 5613 5653 5640 5655 5685 5708 5725 5734 5744 5758 5761 5768 5773 5779 5782 5781 5774 5768 5769 5762 5761 5757 5754 5748 5746 5742 5732 5727 5725 5723 5719 5717 5715
5621 5644 5648 5648 5647 5650 5646 5625 5597 5598 5598 5623 5652 5630 5664 5700 5712 5726 5730 5737 5744 5748 5755 5762 5765 5768 5766 5764 5768 5766 5758 5756 5755 5751 5747 5741 5738 5732 5728 5724 5720 5713 5709 5708
5580 5607 5616 5626 5628 5629 5627 5615 5586 5591 5591 5623 5630 5632 5663 5693 5699 5695 5712 5719 5726 5733 5744 5756 5764 5768 5771 5768 5769 5768 5760 5756 5753 5748 5745 5739 5734 5729 5725 5721 5716 5711 5708 5706
5559 5581 5601 5613 5615 5618 5618 5608 5612 5602 5607 5596 5614 5647 5676 5669 5672 5676 5685 5696 5703 5712 5726 5744 5759 5762 5766 5766 5769 5771 5765 5760 5751 5750 5740 5733 5727 5723 5721 5715 5712 5708 5703 5699
5540 5544 5580 5590 5600 5600 5599 5594 5594 5584 5592 5587 5603 5623 5618 5634 5645 5656 5665 5676 5689 5702 5711 5725 5746 5758 5764 5767 5762 5758 5761 5763 5760 5752 5742 5732 5726 5719 5716 5712 5706 5702 5697 5694
5523 5525 5551 5571 5559 5558 5571 5561 5561 5570 5574 5575 5587 5594 5614 5615 5624 5632 5644 5660 5672 5687 5701 5712 5728 5753 5763 5763 5761 5762 5753 5750 5746 5743 5737 5729 5723 5718 5716 5709 5703 5699 5694 5689
5508 5496 5509 5536 5536 5544 5544 5533 5537 5552 5563 5552 5561 5572 5600 5602 5612 5623 5634 5646 5662 5677 5687 5701 5716 5734 5750 5755 5754 5755 5750 5747 5746 5741 5732 5725 5717 5712 5713 5706 5697 5693 5690 5685
5490 5472 5474 5498 5512 5521 5515 5519 5525 5524 5521 5543 5555 5566 5586 5594 5601 5612 5620 5631 5645 5663 5677 5688 5703 5715 5729 5737 5742 5742 5741 5741 5736 5729 5724 5717 5708 5705 5702 5700 5691 5685 5683 5679
5477 5459 5466 5458 5478 5479 5484 5502 5507 5508 5499 5501 5522 5552 5564 5571 5580 5593 5605 5616 5632 5645 5661 5669 5680 5693 5705 5713 5718 5720 5720 5724 5724 5724 5717 5708 5703 5701 5697 5691 5684 5680 5676 5671
5453 5449 5455 5457 5465 5468 5475 5483 5482 5487 5493 5486 5528 5525 5546 5555 5562 5576 5588 5605 5617 5631 5644 5652 5660 5672 5683 5693 5698 5702 5706 5710 5713 5712 5707 5702 5697 5693 5689 5683 5677 5673 5668 5662
5429 5426 5439 5441 5452 5455 5459 5469 5473 5475 5476 5492 5498 5516 5533 5544 5553 5569 5578 5589 5599 5615 5626 5635 5643 5651 5659 5671 5682 5689 5692 5695 5699 5698 5699 5695 5690 5687 5684 5676 5668 5665 5661 5656
5423 5420 5412 5427 5440 5435 5429 5464 5467 5468 5474 5481 5471 5502 5520 5529 5543 5553 5562 5573 5583 5596 5610 5618 5625 5634 5644 5653 5664 5672 5678 5683 5686 5690 5688 5686 5686 5684 5677 5666 5660 5657 5653 5648
5412 5412 5405 5396 5420 5407 5465 5470 5469 5457 5463 5469 5482 5490 5495 5511 5524 5537 5548 5559 5574 5584 5592 5601 5608 5621 5635 5642 5650 5657 5666 5670 5673 5675 5676 5673 5673 5669 5662 5655 5650 5646 5642 5639
5424 5410 5389 5373 5395 5439 5460 5457 5446 5441 5457 5480 5477 5480 5486 5496 5507 5522 5536 5548 5561 5575 5579 5583 5594 5605 5617 5627 5639 5643 5650 5655 5656 5660 5664 5663 5658 5650 5645 5643 5636 5632 5631 5630
5413 5412 5388 5377 5353 5378 5442 5457 5454 5447 5448 5467 5460 5463 5462 5467 5470 5511 5518 5530 5547 5557 5565 5572 5579 5593 5599 5607 5616 5629 5633 5630 5634 5640 5641 5644 5645 5637 5633 5625 5624 5622 5623 5620
5413 5394 5375 5370 5352 5403 5440 5453 5444 5424 5444 5457 5459 5453 5449 5447 5464 5480 5491 5512 5528 5543 5555 5564 5572 5581 5588 5591 5588 5599 5615 5609 5614 5618 5626 5627 5621 5615 5613 5612 5611 5613 5610 5607
5410 5404 5380 5380 5361 5408 5448 5436 5432 5435 5438 5444 5443 5446 5442 5442 5450 5461 5470 5489 5504 5518 5535 5546 5552 5562 5570 5573 5569 5578 5584 5593 5593 5603 5600 5598 5596 5597 5597 5601 5598 5598 5599 5596
5399 5423 5411 5415 5413 5438 5440 5442 5437 5432 5428 5425 5424 5426 5427 5425 5435 5442 5451 5461 5480 5496 5510 5526 5538 5546 5555 5563 5566 5563 5568 5568 5583 5582 5579 5584 5586 5581 5584 5589 5587 5589 5589 5587
5420 5429 5414 5404 5441 5440 5439 5436 5432 5424 5422 5424 5417 5418 5415 5421 5425 5431 5438 5450 5455 5475 5489 5500 5516 5526 5537 5545 5551 5557 5559 5561 5561 5564 5572 5570 5576 5567 5574 5579 5579 5581 5579 5575
5429 5415 5419 5423 5432 5429 5429 5431 5426 5423 5418 5414 5411 5411 5410 5409 5420 5426 5432 5438 5449 5455 5469 5477 5487 5502 5517 5524 5531 5539 5544 5546 5548 5548 5555 5553 5556 5553 5560 5563 5565 5571 5559 5566
5432 5423 5414 5425 5432 5421 5416 5419 5422 5421 5415 5410 5408 5408 5408 5409 5417 5422 5426 5430 5443 5448 5451 5463 5473 5484 5496 5506 5514 5518 5524 5528 5532 5533 5533 5533 5536 5540 5545 5543 5548 5550 5553 5561